sat.trackr.live / text

‹ back to catalog

NETSAT-4

NORAD 46504 · 2020-068U

PAYLOAD ACTIVE UNKNOWN

§ Identity

Operator
Country
GER
Launch date
2020-09-28
Launch site
PLMSC
Launch vehicle
Mass (kg)
RCS (m²)

Purposes: tech_demo

External: N2YO · Heavens-Above · Gunter

§ Orbital elements

Epoch: 2026-05-24T23:31:02.019072Z

Period
93.33 min
Inclination
97.8613°
Eccentricity
0.0006918
Mean motion
15.42986053 rev/d
Perigee alt
432.6 km
Apogee alt
442.0 km
Semi-major
6,815.4 km
B*
3.7556e-4
RAAN
151.3712°
Arg perigee
58.4513°
Mean anomaly
301.7408°
Rev number
31,219

§ Raw data

NETSAT-41 46504U 20068U   26144.97988448  .00016476  00000+0  37556-3 0  99912 46504  97.8613 151.3712 0006918  58.4513 301.7408 15.42986053312197

JSON: /api/v1/satellites/46504 · /tle

For live sub-satellite position, see the globe view (requires WebGL).

§ Visibility from observer

Set your observer location to see the next 7 days of passes ≥ 10°. The values pass through the URL so the page stays shareable.

No JS? Fill the form by hand. The geolocation button needs JavaScript.

§ Radio — SatNOGS DB

ModeDescriptionDownlinkUplink
FSK AX.25 G3RUH Telemetry 435.600 MHz

1 transmitter · refreshed weekly from db.satnogs.org